sat.trackr.live / text

‹ back to catalog

STARLINK-33691

NORAD 63462 · 2025-070C

PAYLOAD ACTIVE UNKNOWN

§ Identity

Operator
Country
US
Launch date
2025-04-06
Launch site
AFETR
Launch vehicle
Mass (kg)
RCS (m²)

Purposes: comms

External: N2YO · Heavens-Above · Gunter

§ Orbital elements

Epoch: 2026-09-20T15:03:33.116832Z

Period
94.27 min
Inclination
42.9950°
Eccentricity
0.0000436
Mean motion
15.27589130 rev/d
Perigee alt
482.7 km
Apogee alt
483.3 km
Semi-major
6,861.2 km
B*
2.3261e-4
RAAN
238.5497°
Arg perigee
338.6747°
Mean anomaly
21.4087°
Rev number
8,274

§ Raw data

STARLINK-336911 63462U 25070C   26263.62746663  .00006146  00000+0  23261-3 0  99972 63462  42.9950 238.5497 0000436 338.6747  21.4087 15.27589130 82745

JSON: /api/v1/satellites/63462 · /tle

For live sub-satellite position, see the globe view (requires WebGL).

§ Visibility from observer

Set your observer location to see the next 7 days of passes ≥ 10°. The values pass through the URL so the page stays shareable.

No JS? Fill the form by hand. The geolocation button needs JavaScript.